Location: *
(45.5667°S, 177.5167°W)
Time: 22:43:31
(UTC+00:00)

Cosmos 1867 - Pass Details

Date: 29 May 2022
Orbit: 775 x 801 km, 65.0° (Epoch: 24 June)

Event Time Altitude Azimuth Distance (km) Brightness Sun altitude
Rises 06:16:55 0° 212° (SSW) 3,292 7.1 -20.3°
Reaches altitude 10° 06:19:36 10° 202° (SSW) 2,360 6.2 -20.7°
Enters shadow 06:23:55 32° 151° (SSE) 1,344 4.4 -21.5°
